Terug naar catalogus

ARIANE 2 DEB

ActiefGTO
NORAD 26727·DEBRIS·🇫🇷 France

Gelanceerd Jan 27, 1989 vanaf Guiana Space Centre

Loading…

TLE

VerouderendSource: Space-Track

Epoch: Sep 14, 2026, 13:28 UTC

1 26727U 89006E   26257.56173168  .00000012  00000-0  19141-2 0  9997
2 26727   8.3821  61.0302 7151943 103.0096 264.7266  2.29037780213736

Volg ARIANE 2 DEB in realtime met AllMySat

Download on the App Store